User: anonymous   Login
Location: Unspecified
(0.0000°N, 0.0000°E)
Time: 19:50:51
(UTC+00:00)
Language:

Aussat K2 - Orbit

View from above orbital plane
View from above orbital plane
View from above satellite
View from above satellite

Ground track
Ground track

The orbit data is extracted from the following two-line orbital elements,

1 16275U 85109C   18145.42283024 -.00000298 +00000-0 +00000-0 0  9998
2 16275 015.1999 004.9693 0005657 283.3047 072.4266 00.99951369108645
Epoch (UTC): 25 May 2018 10:08:52
Eccentricity: 0.0005657
inclination: 15.1999°
perigee height: 35852 km
apogee height: 35900 km
right ascension of ascending node: 4.9693°
argument of perigee: 283.3047°
revolutions per day: 0.99951369
mean anomaly at epoch: 72.4266°
orbit number at epoch: 10864

The dashed part of the orbit path shows where the satellite is in the earth's shadow,  

DLR